1st Responders/1st Detectors/Storm Spotters Weather Summary for Whitley County, KY

Forecast Maps


Reg. NEXRAD Animation


National Fire Danger: Day 1 & 2 Map

Current NWS Watch/Warnings

SPC Convective Day 1 Outlook


Day 2 Outlook

(Click images to enlarge|Page will refresh every 5 minutes)
UK Ag. Weather Center Desktop Severe Weather Service[HERE]
Whitley County, KY Hazardous Weather Outlook Webcast
(9 AM to 9 PM Mon-Fri)
[Fast]
[Dial-up]


UKAWC 1st Detectors/1st Responders Precision Weather Forecast For WHITLEY County, Kentucky
(based on the NWS County Digital Forecast)

ISSUED AT 03:00 UTC ON TUESDAY MAY 24 2022
DAY TUESDAY
EDT 3HR MIDN 1A 2A 3A 4A 5A 6A 7A 8A 9A 10A 11A NOON 1P 2P 3P 4P 5P 6P 7P
MAX/MIN -- -- -- -- -- -- -- -- 56° -- -- -- -- -- -- -- -- -- -- 76°
TEMP 58° 58° 58° 56° 56° 56° 56° 56° 56° 58° 61° 63° 65° 67° 70° 72° 74° 76° 76° 74°
SKY COVER 89% 86% 83% 82% 81% 80% 80% 79% 79% 81% 84% 85% 81% 75% 68% 62% 57% 53% 50% 48%
Clouds
DEW PT 56° 56° 56° 56° 56° 56° 56° 56° 56° 56° 58° 58° 59° 61° 61° 61° 61° 61° 61° 61°
RH 96% 92% 93% 96% 96% 100% 99% 99% 99% 92% 89% 86% 81% 78% 73% 68% 63% 61% 61% 64%
POP 12HR -- -- -- -- -- -- -- -- 33% -- -- -- -- -- -- -- -- -- -- --
RAIN/SNOW (liq.equ) -- -- 0.01in -- -- -- -- -- 0.00in -- -- -- -- -- 0.00in -- -- -- -- --
SNOWFALL -- -- 0in -- -- -- -- -- 0in -- -- -- -- -- 0in -- -- -- -- --
WIND SPEED(MPH) 5 5 2 2 1 1 1 1 2 2 2 2 2 2 2 5 5 5 5 5
WIND Gust(MPH) 13 10 8 7 7 6 5 5 5 5 5 5 5 5 5 6 6 7 7 8
WIND DIR NE NE NE NE N N N N N NE NE NE NE NE NE NE NE NE NE NE
DEW Mod Dew Mod Dew Hvy Dew Hvy Dew Hvy Dew Hvy Dew Hvy Dew Hvy Dew Hvy Dew Hvy Dew Hvy Dew Hvy Dew Lgt Dew Lgt Dew Lgt Dew -- -- -- -- --
HeatIndex 58 58 58 56 56 56 56 56 56 58 61 63 65 67 70 72 74 76 76 74
Rain Showers -- -- -- -- -- -- -- -- -- -- -- -- -- -- -- -- -- -- -- --
Thunder Storm -- -- -- -- -- -- -- -- -- -- -- -- -- -- -- -- -- -- -- --
Fog -- -- -- Patchy Patchy Patchy Areas of Areas of Areas of Patchy Patchy -- -- -- -- -- -- -- -- --
WIND CHILL -- -- -- -- -- -- -- -- -- -- -- -- -- -- -- -- -- -- -- --
SPRAY COND
DRY COND
LIVESTOCK HEATSTRESS 58.02 58.04 58.03 56.06 56.06 56.00 56.02 56.02 56.02 58.04 60.87 62.68 64.35 66.01 68.34 69.68 70.91 72.31 72.31 70.99



DAY WEDNESDAY THURSDAY FRIDAY SATURDAY SUNDAY MONDAY
EDT 6HR 8P 9P 10P 11P MIDN 1A 2A 3A 4A 5A 6A 7A 8A 9A 10A 11A 2P 5P 8P 11P 2A 5A 8A 11A 2P 5P 8P 2A 8A 2P 8P 2A 8A 2P 8P 2A 8A 2P 8P 2A 8A 2P 8P
MAX/MIN -- -- -- -- -- -- -- -- -- -- -- -- 61° -- -- -- -- 83° -- -- -- -- 65° -- -- 76° -- -- 58° 72° -- -- 54° 76° -- -- 56° 83° -- -- 59° 85° --
TEMP 74° 72° 70° 67° 67° 65° 65° 63° 63° 61° 61° 63° 65° 70° 74° 76° 81° 83° 77° 70° 67° 65° 67° 72° 74° 74° 70° 61° 59° 70° 67° 58° 58° 72° 72° 59° 59° 77° 76° 63° 65° 83° 79°
SKY COVER 47% 45% 45% 45% 44% 44% 45% 48% 51% 53% 51% 47% 42% 44% 46% 47% 53% 61% 66% 69% 71% 77% 83% 89% 91% 93% 81% 67% 57% 54% 40% 42% 43% 19% 11% 11% 14% 16% 7% 7% 8% 17% 14%
Clouds
DEW PT 63° 61° 61° 61° 61° 61° 61° 61° 61° 61° 61° 61° 63° 63° 65° 65° 65° 65° 65° 65° 63° 63° 63° 63° 63° 61° 61° 59° 58° 56° 54° 54° 54° 54° 56° 54° 56° 56° 61° 58° 59° 61° 63°
RH 68% 70% 75% 81% 83% 86% 89% 90% 93% 96% 100% 96% 93% 81% 73% 68% 60% 54% 64% 81% 87% 90% 86% 75% 71% 66% 70% 93% 93% 61% 65% 86% 89% 55% 59% 83% 86% 48% 57% 83% 84% 46% 58%
POP 12HR 12% -- -- -- -- -- -- -- -- -- -- -- 19% -- -- -- -- -- 61% -- -- -- 63% -- -- -- 93% -- 76% -- 32% -- 14% -- 9% -- 7% -- 6% -- 4% -- 10%
RAIN/SNOW (liq.equ) 0.00in -- -- -- -- -- 0.00in -- -- -- -- -- 0.01in -- -- -- 0.00in -- 0.07in -- 0.02in -- 0.28in -- 0.35in -- 0.33in -- -- -- -- -- -- -- -- -- -- -- -- -- -- -- --
SNOWFALL 0in -- -- -- -- -- 0in -- -- -- -- -- 0in -- -- -- 0in -- 0in -- 0in -- 0in -- 0in -- 0in -- -- -- -- -- -- -- -- -- -- -- -- -- -- -- --
WIND SPEED(MPH) 5 5 2 2 2 2 2 2 2 2 2 5 5 6 7 7 7 7 7 6 6 6 7 9 9 10 7 5 5 8 6 1 2 5 2 1 2 5 2 2 2 5 2
WIND DIR NE E E E E SE SE SE SE SE SE SE SE S S S S S SE SE SE S S S S S S S SW SW W SW W W W S S SW SE S S SW S
HeatIndex 74 72 70 67 67 65 65 63 63 61 61 63 65 70 74 76 83 84 77 70 67 65 67 72 74 74 70 61 59 70 67 58 58 72 72 59 59 77 76 63 65 84 81
Rain Showers -- Slight Chance -- -- -- -- Slight Chance Slight Chance Slight Chance Slight Chance Slight Chance Slight Chance Slight Chance Slight Chance Chance Chance Chance Likely Likely Chance Likely Likely Definite Definite Definite Definite Definite Chance Chance Chance -- -- -- -- -- -- -- -- -- -- -- -- --
Thunder Storm -- Slight Chance -- -- -- -- -- -- -- -- -- -- -- -- Slight Chance Slight Chance Chance Chance Likely Chance Chance Slight Chance -- Slight Chance Chance Chance Slight Chance -- -- Slight Chance -- -- -- -- -- -- -- -- -- -- -- -- --
Fog -- -- -- -- -- -- -- -- -- -- -- -- -- -- -- -- -- -- -- -- -- -- -- -- -- -- -- -- -- -- -- -- -- -- -- -- -- -- -- -- -- -- --
WIND CHILL -- -- -- -- -- -- -- -- -- -- -- -- -- -- -- -- -- -- -- -- -- -- -- -- -- -- -- -- -- -- -- -- -- -- -- -- -- -- -- -- -- -- --
SPRAY COND
DRY COND
LIVESTOCK HEATSTRESS 71.32 69.82 68.46 66.14 66.23 64.52 64.62 62.77 62.84 60.95 61.00 62.91 64.76 68.83 71.74 72.97 76.12 76.88 73.40 68.83 66.41 64.66 66.37 70.19 71.58 71.16 68.15 60.92 58.99 67.60 65.42 58.06 58.05 68.73 69.02 58.98 58.98 71.79 71.93 62.61 64.45 75.81 74.33

Click on individual weather variable above in left-hand column (ie., TEMP, RH, QPF 12HR) to view state forecast maps






NWS 48 Hr. Forecast Maps,

Regional Hourly Observations For WHITLEY County, Kentucky
Issued at 1100 PM EDT MON MAY 23 2022
SOUTHEAST KENTUCKY
  
CITY           SKY/WX    TMP DP  RH WIND       PRES   REMARKS
JACKSON        CLOUDY    55  52  89 CALM      30.16S                  
LONDON         CLOUDY    56  53  90 NE8       30.15S                  
SOMERSET       CLOUDY    59  55  88 NE5       30.14S                  
MIDDLESBORO    CLOUDY    60  60 100 CALM      30.14S                  
MONTICELLO     CLOUDY    59  59 100 E6        30.17S                  


Current NOWCAST not available:
Nowcasts are not issued routinely during fair weather. Only when
precipitation or other significant weather is occuring in this county will these
forecasts be issued. Currently, there is no short term forecast in effect.


Fire Weather Forecast For WHITLEY County, KY
Provided by the National Weather Service:

Issued at: Mon May 23 23:05:01 EDT 2022

700 AM EDT Mon May 23 2022

                      Today        Tonight      Tue          

Cloud Cover           Cloudy       Mcldy        Pcldy        
Chance precip (%)     80           20           20           
Precip type           tstms        showers      showers      
Temp (24H TREND)      66 (-10)     52 (-5)      80           
Rh % (24H TREND)      70 (+6)      100 (+3)     52           
20ftwnd-AM(mph)       NE 4-8 G15                Lgt/Var      
20ftwnd-PM(mph)       NE 4-8 G16   NE 3-7 G14   NE 2-6       
Precip duration       3            1            1            
Precip begin          8 AM                                   
Precip end            Continuing                             
Precip amount         0.31         0.00         0.00         
LAL                   3            2            2            
Haines Index (MID)    3                         2            
Mixing hgt(ft-AGL)    1000                      3200         
Transport wnd (mph)   NE 14                     E  5         
Vent rate (kt-ft)     11676                     14092        
ADI Early             15           10           5            
ADI Late              17           4            20           
Max LVORI Early       6            7            8            
Max LVORI Late        4            9            3            

Remarks...None.

SPC's Fire Weather Web Tool (Excellent!), SPC's Fire Weather Outlooks, NWS Fire Weather WEB, Fire Danger Class Map,
Keetch-Byram Drought Index, ROMAN Web, Haines Index ,
WFAS's 10-hr Dead Fuel Moist., WFAS's 100-hr Dead Fuel Moist., Probablity of Ignition, Visual blackness Map, Palmer Drought Index, HPC's Rainfall Forecast Maps


Hazardous Weather Outlook For WHITLEY County, Kentucky
859 PM EDT Mon May 23 2022

 DAY ONE  Tonight.

No hazardous weather is expected at this time.

 DAYS TWO THROUGH SEVEN  Tuesday through Sunday.

Thunderstorms will be possible, at times, late Tuesday through 
Friday, especially during the afternoon and evening hours.

 SPOTTER INFORMATION STATEMENT  

Spotter activation is not anticipated.

Latest WHITLEY County, Kentucky Watches, Warnings and Advisories.
Additional Drought Info.: UKAWC Drought Page, Kentucky Drought Watch


7-Day Forecast For WHITLEY County, KY

REST OF TONIGHT
Mostly cloudy. A 30 percent chance of showers and drizzle until early morning. Areas of fog late. Lows in the upper 50s. Light winds.

TUESDAY
Partly sunny. Areas of fog early. Highs in the upper 70s. Light winds.

TUESDAY NIGHT
Partly cloudy. A slight chance of showers and thunderstorms in the evening, then a slight chance of showers late. Lows in the lower 60s. Light winds. Chance of rain 20 percent.

WEDNESDAY
Partly sunny. A chance of showers and thunderstorms in the morning, then showers and thunderstorms likely in the afternoon. Highs in the mid 80s. Light winds. Chance of rain 60 percent.

WEDNESDAY NIGHT
Mostly cloudy. Showers and thunderstorms likely in the evening, then showers likely and a chance of thunderstorms late. Lows in the mid 60s. Light winds. Chance of rain 60 percent.

THURSDAY
Showers with thunderstorms likely. Highs in the mid 70s. Chance of rain 90 percent.

THURSDAY NIGHT
Showers and a slight chance of thunderstorms. Lows in the upper 50s. Chance of rain 80 percent.

FRIDAY
Partly sunny with a chance of showers and a slight chance of thunderstorms. Highs in the lower 70s. Chance of rain 30 percent.

FRIDAY NIGHT
Partly cloudy. Lows in the mid 50s.

SATURDAY
Sunny. Highs in the mid 70s.

SATURDAY NIGHT
Mostly clear. Lows in the upper 50s.

SUNDAY
Sunny. Highs in the lower 80s.

SUNDAY NIGHT
Mostly clear. Lows around 60.

MEMORIAL DAY
Sunny. Highs in the mid 80s.

Ag Weather Center, Department of Biosystems & Agricultural Engineering, University of Kentucky